• In Czech Republic
  • List of Countries
  • For 7 days
  • Water Temperature
  • Satellite Maps
  • Weather Map
  • Weather Widgets
  • user-avatar
    Login

    Hourly Weather Manchester

    Today, 20 August, Monday

    Time Temperature Precipitation Wind Pressure Humidity
    00:00 +16°C° 0 mm 1 mps 759 mmHg 92%
    01:00 +16°C° 0 mm 1 mps 759 mmHg 92%
    02:00 +16°C° 0 mm 1 mps 759 mmHg 92%
    03:00 +18°C° 0 mm 1 mps 759 mmHg 92%
    04:00 +18°C° 0 mm 1 mps 759 mmHg 92%
    05:00 +18°C° 0 mm 1 mps 759 mmHg 92%
    06:00 +18°C° 0 mm 1 mps 759 mmHg 92%
    07:00 +19°C° 0.1 mm 1 mps 759 mmHg 91%
    08:00 +19°C° 0.1 mm 1 mps 759 mmHg 89%
    09:00 +20°C° 0.1 mm 1 mps 759 mmHg 88%
    10:00 +21°C° 0.1 mm 1 mps 759 mmHg 84%
    11:00 +22°C° 0.1 mm 1 mps 759 mmHg 80%
    12:00 +23°C° 0.1 mm 1 mps 759 mmHg 76%
    13:00 +23°C° 0.2 mm 1 mps 759 mmHg 77%
    14:00 +23°C° 0.2 mm 1 mps 759 mmHg 78%
    15:00 +23°C° 0.2 mm 1 mps 759 mmHg 79%
    16:00 +23°C° 0.1 mm 1 mps 759 mmHg 80%
    17:00 +22°C° 0.1 mm 1 mps 759 mmHg 80%
    18:00 +22°C° 0.1 mm 1 mps 758 mmHg 81%
    19:00 +21°C° 0.1 mm 1 mps 759 mmHg 83%
    20:00 +21°C° 0.1 mm 1 mps 759 mmHg 86%
    21:00 +20°C° 0.1 mm 1 mps 759 mmHg 88%
    22:00 +19°C° 0 mm 1 mps 759 mmHg 89%
    23:00 +19°C° 0 mm 1 mps 759 mmHg 90%

    Tomorrow, 21 August, Tuesday

    Time Temperature Precipitation Wind Pressure Humidity
    00:00 +16°C° 0 mm 0 mps 759 mmHg 91%
    01:00 +16°C° 0 mm 0 mps 759 mmHg 91%
    02:00 +16°C° 0 mm 0 mps 758 mmHg 92%
    03:00 +18°C° 0 mm 1 mps 758 mmHg 92%
    04:00 +18°C° 0 mm 1 mps 758 mmHg 92%
    05:00 +18°C° 0 mm 1 mps 758 mmHg 92%
    06:00 +18°C° 0 mm 1 mps 758 mmHg 92%
    07:00 +19°C° 0 mm 1 mps 758 mmHg 88%
    08:00 +20°C° 0 mm 1 mps 758 mmHg 84%
    09:00 +21°C° 0 mm 1 mps 758 mmHg 81%
    10:00 +21°C° 0.1 mm 2 mps 758 mmHg 78%
    11:00 +23°C° 0.1 mm 2 mps 758 mmHg 75%
    12:00 +22°C° 0.1 mm 3 mps 758 mmHg 72%
    13:00 +22°C° 0 mm 3 mps 758 mmHg 70%
    14:00 +24°C° 0 mm 3 mps 757 mmHg 69%
    15:00 +24°C° 0 mm 3 mps 757 mmHg 68%
    16:00 +24°C° 0 mm 3 mps 757 mmHg 69%
    17:00 +22°C° 0 mm 3 mps 757 mmHg 71%
    18:00 +23°C° 0 mm 2 mps 757 mmHg 72%
    19:00 +21°C° 0 mm 2 mps 757 mmHg 76%
    20:00 +20°C° 0 mm 2 mps 757 mmHg 80%
    21:00 +18°C° 0 mm 2 mps 757 mmHg 84%
    22:00 +18°C° 0 mm 3 mps 757 mmHg 86%
    23:00 +18°C° 0 mm 3 mps 756 mmHg 87%

    Day after tomorrow, 22 August, Wednesday

    Time Temperature Precipitation Wind Pressure Humidity
    00:00 +18°C° 0 mm 3 mps 756 mmHg 89%
    01:00 +18°C° 0 mm 4 mps 756 mmHg 90%
    02:00 +17°C° 0 mm 4 mps 756 mmHg 91%
    03:00 +17°C° 0 mm 4 mps 755 mmHg 91%
    04:00 +18°C° 0.1 mm 4 mps 755 mmHg 91%
    05:00 +18°C° 0.1 mm 4 mps 755 mmHg 90%
    06:00 +17°C° 0.1 mm 5 mps 755 mmHg 89%
    07:00 +17°C° 0.3 mm 5 mps 755 mmHg 88%
    08:00 +19°C° 0.3 mm 5 mps 755 mmHg 87%
    09:00 +19°C° 0.3 mm 5 mps 756 mmHg 85%
    10:00 +18°C° 0.3 mm 4 mps 756 mmHg 84%
    11:00 +18°C° 0.3 mm 4 mps 756 mmHg 82%
    12:00 +18°C° 0.3 mm 4 mps 756 mmHg 80%
    13:00 +18°C° 0 mm 4 mps 756 mmHg 76%
    14:00 +17°C° 0 mm 5 mps 756 mmHg 72%
    15:00 +19°C° 0 mm 5 mps 756 mmHg 68%
    16:00 +17°C° 0 mm 5 mps 756 mmHg 69%
    17:00 +16°C° 0 mm 5 mps 756 mmHg 69%
    18:00 +15°C° 0 mm 5 mps 756 mmHg 70%
    19:00 +14°C° 0 mm 4 mps 756 mmHg 72%
    20:00 +13°C° 0 mm 4 mps 757 mmHg 75%
    21:00 +12°C° 0 mm 3 mps 757 mmHg 78%
    22:00 +12°C° 0 mm 3 mps 757 mmHg 79%
    23:00 +12°C° 0 mm 3 mps 757 mmHg 80%

    23 August, Thursday

    Time Temperature Precipitation Wind Pressure Humidity
    00:00 +11°C° 0 mm 3 mps 757 mmHg 81%
    01:00 +11°C° 0 mm 3 mps 756 mmHg 82%
    02:00 +11°C° 0 mm 3 mps 756 mmHg 82%
    03:00 +11°C° 0 mm 3 mps 756 mmHg 83%
    04:00 +11°C° 0 mm 3 mps 755 mmHg 84%
    05:00 +11°C° 0 mm 4 mps 755 mmHg 84%
    06:00 +11°C° 0 mm 4 mps 755 mmHg 85%
    07:00 +12°C° 0 mm 4 mps 755 mmHg 81%
    08:00 +13°C° 0 mm 5 mps 754 mmHg 78%
    09:00 +14°C° 0 mm 5 mps 754 mmHg 74%
    10:00 +15°C° 0.3 mm 6 mps 754 mmHg 73%
    11:00 +15°C° 0.3 mm 6 mps 754 mmHg 72%
    12:00 +15°C° 0.3 mm 7 mps 754 mmHg 71%
    13:00 +15°C° 0.2 mm 7 mps 753 mmHg 69%
    14:00 +15°C° 0.2 mm 7 mps 753 mmHg 67%
    15:00 +14°C° 0.2 mm 7 mps 753 mmHg 65%
    16:00 +14°C° 0.1 mm 7 mps 753 mmHg 65%
    17:00 +14°C° 0.1 mm 6 mps 753 mmHg 65%
    18:00 +13°C° 0.1 mm 6 mps 753 mmHg 65%
    19:00 +11°C° 0.1 mm 6 mps 753 mmHg 69%
    20:00 +12°C° 0.1 mm 5 mps 754 mmHg 73%
    21:00 +10°C° 0.1 mm 5 mps 754 mmHg 77%
    22:00 +10°C° 0.2 mm 5 mps 754 mmHg 78%
    23:00 +10°C° 0.2 mm 5 mps 754 mmHg 80%

    24 August, Friday

    Time Temperature Precipitation Wind Pressure Humidity
    00:00 +9°C° 0.2 mm 5 mps 754 mmHg 81%
    01:00 +9°C° 0.1 mm 5 mps 754 mmHg 82%
    02:00 +9°C° 0.1 mm 5 mps 754 mmHg 82%
    03:00 +9°C° 0.1 mm 5 mps 754 mmHg 83%
    04:00 +9°C° 0.1 mm 5 mps 754 mmHg 83%
    05:00 +9°C° 0.1 mm 5 mps 754 mmHg 83%
    06:00 +9°C° 0.1 mm 5 mps 754 mmHg 83%
    07:00 +10°C° 0.2 mm 6 mps 755 mmHg 79%
    08:00 +11°C° 0.2 mm 6 mps 755 mmHg 75%
    09:00 +12°C° 0.2 mm 7 mps 755 mmHg 71%
    10:00 +14°C° 0.4 mm 7 mps 755 mmHg 70%
    11:00 +14°C° 0.4 mm 7 mps 755 mmHg 69%
    12:00 +15°C° 0.4 mm 7 mps 755 mmHg 67%
    13:00 +15°C° 0.3 mm 7 mps 755 mmHg 67%
    14:00 +15°C° 0.3 mm 7 mps 755 mmHg 66%
    15:00 +15°C° 0.3 mm 8 mps 756 mmHg 65%
    16:00 +15°C° 0.1 mm 7 mps 756 mmHg 67%
    17:00 +15°C° 0.1 mm 6 mps 756 mmHg 69%
    18:00 +14°C° 0.1 mm 6 mps 756 mmHg 71%
    19:00 +13°C° 0.1 mm 5 mps 757 mmHg 75%
    20:00 +12°C° 0.1 mm 5 mps 757 mmHg 78%
    21:00 +11°C° 0.1 mm 4 mps 757 mmHg 82%
    22:00 +11°C° 0.1 mm 4 mps 758 mmHg 83%
    23:00 +11°C° 0.1 mm 4 mps 758 mmHg 85%

    25 August, Saturday

    Time Temperature Precipitation Wind Pressure Humidity
    00:00 +10°C° 0.1 mm 3 mps 758 mmHg 86%
    01:00 +10°C° 0.1 mm 3 mps 758 mmHg 87%
    02:00 +10°C° 0.1 mm 3 mps 758 mmHg 88%
    03:00 +9°C° 0.1 mm 3 mps 757 mmHg 88%
    04:00 +9°C° 0.1 mm 3 mps 758 mmHg 88%
    05:00 +9°C° 0.1 mm 3 mps 758 mmHg 88%
    06:00 +9°C° 0.1 mm 3 mps 758 mmHg 88%
    07:00 +10°C° 0.1 mm 3 mps 758 mmHg 82%
    08:00 +12°C° 0.1 mm 3 mps 758 mmHg 76%
    09:00 +13°C° 0.1 mm 4 mps 758 mmHg 69%
    10:00 +14°C° 0.2 mm 4 mps 758 mmHg 66%
    11:00 +14°C° 0.2 mm 4 mps 757 mmHg 63%
    12:00 +15°C° 0.2 mm 4 mps 757 mmHg 59%
    13:00 +15°C° 0.1 mm 4 mps 757 mmHg 59%
    14:00 +15°C° 0.1 mm 4 mps 757 mmHg 58%
    15:00 +15°C° 0.1 mm 5 mps 757 mmHg 58%
    16:00 +15°C° 0 mm 4 mps 757 mmHg 61%
    17:00 +14°C° 0 mm 4 mps 757 mmHg 64%
    18:00 +13°C° 0 mm 3 mps 757 mmHg 68%
    19:00 +12°C° 0 mm 3 mps 757 mmHg 71%
    20:00 +11°C° 0 mm 3 mps 757 mmHg 74%
    21:00 +10°C° 0 mm 2 mps 758 mmHg 76%
    22:00 +10°C° 0 mm 2 mps 758 mmHg 77%
    23:00 +9°C° 0 mm 2 mps 758 mmHg 78%
    Show more